Bangor, ME

9:19 PM EST on January 16, 2018 (GMT -0500)
Bangor International

Weather History for KBGR - October, 2011

Change the Weather History Date:

Monday, October 24, 2011

  Actual Average Record
Temperature  
Mean Temperature 51 °F 44 °F  
Max Temperature 56 °F 54 °F 76 °F (1963)
Min Temperature 45 °F 34 °F 19 °F (1969)
Degree Days  
Heating Degree Days 14 21  
Month to date heating degree days 285 400  
Since 1 July heating degree days 416 672  
Cooling Degree Days 0 0  
Month to date cooling degree days 2 0  
Year to date cooling degree days 348 317  
Moisture  
Dew Point 42 °F    
Average Humidity 74    
Maximum Humidity 93    
Minimum Humidity 55    
Precipitation  
Precipitation T in 0.14 in 3.16 in (1937)
Month to date precipitation 4.19 3.26  
Year to date precipitation 37.31 33.34  
Snow  
Snow 0.00 in 0.00 in 0.00 in (2002)
Month to date snowfall 0.0 0.1  
Since 1 July snowfall 0.0 0.1  
Since 1 September snowfall 0.0 0.1  
Snow Depth 0.00 in    
Sea Level Pressure  
Sea Level Pressure 30.06 in    
Wind  
Wind Speed 2 mph (South)    
Max Wind Speed 10 mph    
Max Gust Speed 14 mph    
Visibility 10 miles    
Events      
T = Trace of Precipitation, MM = Missing Value Source: NWS Daily Summary

Daily Weather History Graph

Daily Weather History Graph

Search for Another Location

Airport or City:

Trip Planner

Search our weather history database for the weather conditions in past years. The results will help you decide how hot, cold, wet, or windy it might be!

Date:

Astronomy

Oct. 24, 2011 Rise Set
Actual Time 7:02 AM EDT 5:36 PM EDT
Civil Twilight 6:32 AM EDT 6:06 PM EDT
Nautical Twilight 5:58 AM EDT 6:40 PM EDT
Astronomical Twilight 5:24 AM EDT 7:14 PM EDT
Moon 4:11 AM EDT (10/24) 4:02 PM EDT (10/24)
Length of Visible Light 11h 33m
Length of Day
10h 34m
Waning Crescent, 7% of the Moon is Illuminated
Oct 24
Waning Crescent
Oct 26
New
Nov 2
First Quarter
Nov 10
Full
Nov 18
Last Quarter

Hourly Weather History & Observations

Time (EDT) Temp. Dew Point Humidity Pressure Visibility Wind Dir Wind Speed Gust Speed Precip Events Conditions
12:53 AM 48.2 °F 42.8 °F 82% 30.12 in 10.0 mi Calm Calm - N/A   Overcast
1:53 AM 46.9 °F 43.0 °F 86% 30.12 in 10.0 mi Calm Calm - N/A   Overcast
2:53 AM 46.9 °F 43.0 °F 86% 30.12 in 10.0 mi Calm Calm - N/A   Overcast
3:53 AM 46.9 °F 43.0 °F 86% 30.12 in 10.0 mi NW 3.5 mph - N/A   Overcast
4:53 AM 48.0 °F 43.0 °F 83% 30.12 in 10.0 mi Calm Calm - N/A   Overcast
5:53 AM 46.9 °F 43.0 °F 86% 30.13 in 10.0 mi Calm Calm - N/A   Overcast
6:53 AM 46.9 °F 43.0 °F 86% 30.12 in 10.0 mi Calm Calm - N/A   Overcast
7:53 AM 46.9 °F 44.1 °F 90% 30.13 in 10.0 mi Calm Calm - N/A   Mostly Cloudy
8:53 AM 48.0 °F 44.1 °F 86% 30.13 in 10.0 mi Calm Calm - N/A   Mostly Cloudy
9:53 AM 51.1 °F 42.1 °F 71% 30.12 in 10.0 mi Calm Calm - N/A   Mostly Cloudy
10:53 AM 52.0 °F 42.1 °F 69% 30.12 in 10.0 mi SW 4.6 mph - N/A   Mostly Cloudy
11:53 AM 54.0 °F 39.9 °F 59% 30.09 in 10.0 mi South 8.1 mph - N/A   Mostly Cloudy
12:53 PM 54.0 °F 39.9 °F 59% 30.07 in 10.0 mi South 9.2 mph - N/A   Mostly Cloudy
1:53 PM 55.0 °F 39.0 °F 55% 30.05 in 10.0 mi South 5.8 mph - N/A   Mostly Cloudy
2:53 PM 55.4 °F 39.2 °F 54% 30.04 in 10.0 mi SSE 3.5 mph - N/A   Mostly Cloudy
3:53 PM 55.0 °F 39.9 °F 57% 30.02 in 10.0 mi SSE 9.2 mph - N/A   Mostly Cloudy
4:53 PM 53.1 °F 39.9 °F 61% 30.01 in 10.0 mi SSE 8.1 mph - N/A   Mostly Cloudy
5:53 PM 50.0 °F 39.0 °F 66% 30.01 in 10.0 mi South 6.9 mph - N/A   Mostly Cloudy
6:53 PM 48.0 °F 39.0 °F 71% 30.00 in 10.0 mi SSE 6.9 mph - N/A   Scattered Clouds
7:53 PM 46.9 °F 41.0 °F 80% 29.99 in 10.0 mi South 4.6 mph - N/A   Mostly Cloudy
8:53 PM 46.9 °F 42.1 °F 83% 29.98 in 10.0 mi SSE 3.5 mph - N/A   Mostly Cloudy
9:53 PM 48.2 °F 42.8 °F 82% 29.96 in 10.0 mi SSE 4.6 mph - N/A   Overcast
10:53 PM 50.0 °F 44.1 °F 80% 29.94 in 10.0 mi South 6.9 mph - N/A   Overcast
11:53 PM 50.0 °F 44.6 °F 82% 29.91 in 10.0 mi South 5.8 mph - N/A   Mostly Cloudy